,,Stat5,,Stat1,,Stat2,,Stat3,,Stat4,,Wind1,,Wind1,
time,status,PA1M_AVG,status,PR1M_SUM,status,RH1M_AVG,status,SR1M_AVG,status,TA1M_AVG,status,W1dAve1m,status,W1sAve1m,
2003-04-10, 00:00:00,VALID,917.838,VALID,0,VALID,99.9443,VALID,-0.0169808,VALID,19.7087,VALID,140,VALID,0.896382,
2003-04-10, 00:01:00,VALID,917.818,VALID,0,VALID,99.943,VALID,0,VALID,19.7218,VALID,134,VALID,0.905664,
2003-04-10, 00:02:00,VALID,917.816,VALID,0,VALID,99.943,VALID,0,VALID,19.7091,VALID,138,VALID,0.470806,
2003-04-10, 00:03:00,VALID,917.806,VALID,0,VALID,99.9379,VALID,-0.0339617,VALID,19.6823,VALID,134,VALID,0.676482,
2003-04-10, 00:04:00,VALID,917.779,VALID,0,VALID,99.9379,VALID,-0.0169808,VALID,19.6925,VALID,143,VALID,0.963542,
2003-04-10, 00:05:00,VALID,917.758,VALID,0,VALID,99.9354,VALID,-0.0509425,VALID,19.683,VALID,143,VALID,0.712171,
2003-04-10, 00:06:00,VALID,917.76,VALID,0,VALID,99.9252,VALID,-0.0169808,VALID,19.6806,VALID,133,VALID,0.834766,
2003-04-10, 00:07:00,VALID,917.742,VALID,0,VALID,99.9456,VALID,-0.0339617,VALID,19.6572,VALID,142,VALID,0.614258,
2003-04-10, 00:08:00,VALID,917.716,VALID,0,VALID,99.9418,VALID,0,VALID,19.6475,VALID,119,VALID,0.774916,
2003-04-10, 00:09:00,VALID,917.727,VALID,0,VALID,99.9379,VALID,-0.0169808,VALID,19.6447,VALID,143,VALID,0.763822,
2003-04-10, 00:10:00,VALID,917.717,VALID,0,VALID,99.9443,VALID,-0.0339617,VALID,19.6283,VALID,146,VALID,0.947163,
2003-04-10, 00:11:00,VALID,917.715,VALID,0,VALID,99.943,VALID,-0.0339617,VALID,19.6246,VALID,144,VALID,1.04355,
2003-04-10, 00:12:00,VALID,917.692,VALID,0,VALID,99.9405,VALID,-0.0509425,VALID,19.6152,VALID,150,VALID,1.17907,
2003-04-10, 00:13:00,VALID,917.666,VALID,0.2,VALID,99.9367,VALID,-0.0169808,VALID,19.59,VALID,150,VALID,1.17746,
2003-04-10, 00:14:00,VALID,917.64,VALID,0,VALID,99.9367,VALID,-0.0339617,VALID,19.5634,VALID,164,VALID,0.858553,
2003-04-10, 00:15:00,VALID,917.632,VALID,0,VALID,99.9265,VALID,0,VALID,19.5567,VALID,150,VALID,1.10737,
2003-04-10, 00:16:00,VALID,917.622,VALID,0,VALID,99.929,VALID,0,VALID,19.5408,VALID,153,VALID,1.24082,
2003-04-10, 00:17:00,VALID,917.601,VALID,0,VALID,99.9329,VALID,0,VALID,19.5344,VALID,149,VALID,1.2377,
2003-04-10, 00:18:00,VALID,917.592,VALID,0,VALID,99.9227,VALID,-0.0169808,VALID,19.5381,VALID,144,VALID,0.996394,
2003-04-10, 00:19:00,VALID,917.579,VALID,0,VALID,99.9252,VALID,0,VALID,19.5376,VALID,139,VALID,0.701891,
2003-04-10, 00:20:00,VALID,917.573,VALID,0,VALID,99.9214,VALID,0,VALID,19.515,VALID,130,VALID,0.671684,
2003-04-10, 00:21:00,VALID,917.559,VALID,0,VALID,99.9303,VALID,-0.0169808,VALID,19.5217,VALID,130,VALID,0.270433,
2003-04-10, 00:22:00,VALID,917.556,VALID,0,VALID,99.9176,VALID,-0.0169808,VALID,19.515,VALID,129,VALID,0.223307,
2003-04-10, 00:23:00,VALID,917.559,VALID,0,VALID,99.9176,VALID,-0.0509425,VALID,19.5227,VALID,123,VALID,0.446429,
2003-04-10, 00:24:00,VALID,917.57,VALID,0,VALID,99.9138,VALID,-0.101885,VALID,19.5067,VALID,117,VALID,0.623733,
2003-04-10, 00:25:00,VALID,917.549,VALID,0,VALID,99.9176,VALID,-0.152827,VALID,19.5135,VALID,121,VALID,0.10625,
2003-04-10, 00:26:00,VALID,917.519,VALID,0,VALID,99.9329,VALID,-0.101885,VALID,19.5398,VALID,128,VALID,0.303865,
2003-04-10, 00:27:00,VALID,917.506,VALID,0,VALID,99.9303,VALID,-0.118866,VALID,19.5299,VALID,159,VALID,0.456926,
2003-04-10, 00:28:00,VALID,917.5,VALID,0,VALID,99.9252,VALID,-0.135847,VALID,19.5393,VALID,154,VALID,0.509079,
2003-04-10, 00:29:00,VALID,917.501,VALID,0,VALID,99.9265,VALID,-0.152827,VALID,19.5363,VALID,153,VALID,0.265419,
2003-04-10, 00:30:00,VALID,917.48,VALID,0,VALID,99.9329,VALID,-0.118866,VALID,19.5552,VALID,153,VALID,0.173878,
2003-04-10, 00:31:00,VALID,917.49,VALID,0,VALID,99.9354,VALID,-0.135847,VALID,19.5522,VALID,138,VALID,0.197213,
2003-04-10, 00:32:00,VALID,917.484,VALID,0,VALID,99.9341,VALID,-0.118866,VALID,19.5619,VALID,120,VALID,0.000400641,
2003-04-10, 00:33:00,VALID,917.476,VALID,0,VALID,99.9329,VALID,-0.169808,VALID,19.5617,VALID,130,VALID,0.447846,
2003-04-10, 00:34:00,VALID,917.473,VALID,0,VALID,99.9189,VALID,-0.135847,VALID,19.5458,VALID,141,VALID,0.405859,
2003-04-10, 00:35:00,VALID,917.463,VALID,0,VALID,99.9278,VALID,-0.135847,VALID,19.5299,VALID,138,VALID,0.384766,
2003-04-10, 00:36:00,VALID,917.445,VALID,0,VALID,99.9265,VALID,-0.118866,VALID,19.5234,VALID,137,VALID,0.265836,
2003-04-10, 00:37:00,VALID,917.419,VALID,0,VALID,99.9379,VALID,-0.135847,VALID,19.5291,VALID,136,VALID,0.0444079,
2003-04-10, 00:38:00,VALID,917.403,VALID,0,VALID,99.9278,VALID,-0.152827,VALID,19.5388,VALID,137,VALID,0.129808,
2003-04-10, 00:39:00,VALID,917.403,VALID,0,VALID,99.9214,VALID,-0.118866,VALID,19.5294,VALID,136,VALID,0.00200321,
2003-04-10, 00:40:00,VALID,917.385,VALID,0,VALID,99.9341,VALID,-0.101885,VALID,19.5261,VALID,136,VALID,0.0124199,
2003-04-10, 00:41:00,VALID,917.368,VALID,0,VALID,99.9303,VALID,-0.152827,VALID,19.513,VALID,136,VALID,0,
2003-04-10, 00:42:00,VALID,917.36,VALID,0,VALID,99.9392,VALID,-0.169808,VALID,19.4806,VALID,136,VALID,0,
2003-04-10, 00:43:00,VALID,917.349,VALID,0,VALID,99.9329,VALID,-0.152827,VALID,19.4876,VALID,66,VALID,0.23778,
2003-04-10, 00:44:00,VALID,917.349,VALID,0,VALID,99.9418,VALID,-0.135847,VALID,19.468,VALID,42,VALID,0.117188,
2003-04-10, 00:45:00,VALID,917.351,VALID,0,VALID,99.9456,VALID,-0.135847,VALID,19.4717,VALID,42,VALID,0.0392578,
2003-04-10, 00:46:00,VALID,917.362,VALID,0,VALID,99.9392,VALID,-0.152827,VALID,19.4423,VALID,50,VALID,0.50884,
2003-04-10, 00:47:00,VALID,917.353,VALID,0,VALID,99.9379,VALID,-0.118866,VALID,19.4645,VALID,26,VALID,0.533156,
2003-04-10, 00:48:00,VALID,917.34,VALID,0,VALID,99.9379,VALID,-0.152827,VALID,19.4906,VALID,26,VALID,0.209498,
2003-04-10, 00:49:00,VALID,917.329,VALID,0,VALID,99.943,VALID,-0.118866,VALID,19.4876,VALID,32,VALID,0.328325,
2003-04-10, 00:50:00,VALID,917.314,VALID,0,VALID,99.9379,VALID,-0.135847,VALID,19.4844,VALID,34,VALID,0.0873397,
2003-04-10, 00:51:00,VALID,917.284,VALID,0,VALID,99.9519,VALID,-0.135847,VALID,19.4873,VALID,34,VALID,0.0348558,
2003-04-10, 00:52:00,VALID,917.278,VALID,0,VALID,99.9545,VALID,-0.101885,VALID,19.4871,VALID,48,VALID,0.460136,
2003-04-10, 00:53:00,VALID,917.242,VALID,0,VALID,99.9608,VALID,-0.0679233,VALID,19.4829,VALID,116,VALID,0.726162,
2003-04-10, 00:54:00,VALID,917.24,VALID,0,VALID,99.9557,VALID,-0.0339617,VALID,19.4891,VALID,70,VALID,0.446837,
2003-04-10, 00:55:00,VALID,917.217,VALID,0,VALID,99.9507,VALID,-0.0509425,VALID,19.4891,VALID,148,VALID,0.648037,
2003-04-10, 00:56:00,VALID,917.195,VALID,0,VALID,99.9557,VALID,-0.0169808,VALID,19.5083,VALID,71,VALID,0.698568,
2003-04-10, 00:57:00,VALID,917.184,VALID,0,VALID,99.957,VALID,-0.0339617,VALID,19.505,VALID,65,VALID,1.637,
2003-04-10, 00:58:00,VALID,917.164,VALID,0,VALID,99.9557,VALID,0,VALID,19.5376,VALID,71,VALID,0.904297,
2003-04-10, 00:59:00,VALID,917.161,VALID,0,VALID,99.9468,VALID,-0.0169808,VALID,19.5371,VALID,84,VALID,0.676215,
2003-04-10, 01:00:00,VALID,917.158,VALID,0,VALID,99.9443,VALID,0,VALID,19.5373,VALID,112,VALID,0.620477,
2003-04-10, 01:01:00,VALID,917.126,VALID,0,VALID,99.9532,VALID,-0.0169808,VALID,19.5475,VALID,107,VALID,0.535051,
2003-04-10, 01:02:00,VALID,917.114,VALID,0,VALID,99.9545,VALID,-0.0169808,VALID,19.5473,VALID,138,VALID,0.673931,
2003-04-10, 01:03:00,VALID,917.099,VALID,0,VALID,99.943,VALID,0,VALID,19.5373,VALID,141,VALID,0.515008,
2003-04-10, 01:04:00,VALID,917.072,VALID,0,VALID,99.9507,VALID,0,VALID,19.5311,VALID,139,VALID,0.615132,
2003-04-10, 01:05:00,VALID,917.056,VALID,0,VALID,99.9519,VALID,0,VALID,19.5247,VALID,147,VALID,0.675887,
2003-04-10, 01:06:00,VALID,917.022,VALID,0,VALID,99.9443,VALID,0.0169808,VALID,19.5214,VALID,171,VALID,0.718544,
2003-04-10, 01:07:00,VALID,917.004,VALID,0,VALID,99.943,VALID,0,VALID,19.5219,VALID,174,VALID,0.834882,
2003-04-10, 01:08:00,VALID,917.009,VALID,0,VALID,99.9481,VALID,-0.0169808,VALID,19.4988,VALID,176,VALID,0.750195,
2003-04-10, 01:09:00,VALID,916.996,VALID,0,VALID,99.9608,VALID,0,VALID,19.4727,VALID,166,VALID,0.244792,
2003-04-10, 01:10:00,VALID,916.981,VALID,0,VALID,99.957,VALID,0,VALID,19.4831,VALID,161,VALID,0.144637,
2003-04-10, 01:11:00,VALID,916.968,VALID,0,VALID,99.9621,VALID,0,VALID,19.4764,VALID,167,VALID,0.481771,
2003-04-10, 01:12:00,VALID,916.955,VALID,0,VALID,99.9468,VALID,-0.0169808,VALID,19.4473,VALID,174,VALID,1.10762,
2003-04-10, 01:13:00,VALID,916.952,VALID,0,VALID,99.9494,VALID,0,VALID,19.4441,VALID,164,VALID,0.761018,
2003-04-10, 01:14:00,VALID,916.955,VALID,0,VALID,99.9596,VALID,0,VALID,19.4275,VALID,166,VALID,0.70653,
2003-04-10, 01:15:00,VALID,916.951,VALID,0,VALID,99.9596,VALID,0,VALID,19.4309,VALID,146,VALID,0.869191,
2003-04-10, 01:16:00,VALID,916.935,VALID,0,VALID,99.9583,VALID,0,VALID,19.4178,VALID,162,VALID,0.80239,
2003-04-10, 01:17:00,VALID,916.936,VALID,0,VALID,99.9596,VALID,0.0169808,VALID,19.4217,VALID,141,VALID,0.461538,
2003-04-10, 01:18:00,VALID,916.914,VALID,0,VALID,99.9697,VALID,0.0169808,VALID,19.4212,VALID,155,VALID,0.537007,
2003-04-10, 01:19:00,VALID,916.904,VALID,0,VALID,99.957,VALID,0.0169808,VALID,19.415,VALID,150,VALID,0.879687,
2003-04-10, 01:20:00,VALID,916.88,VALID,0,VALID,99.9672,VALID,0,VALID,19.3989,VALID,176,VALID,0.743421,
2003-04-10, 01:21:00,VALID,916.867,VALID,0,VALID,99.9723,VALID,0.0339617,VALID,19.3951,VALID,171,VALID,0.576637,
2003-04-10, 01:22:00,VALID,916.853,VALID,0,VALID,99.9634,VALID,0.0169808,VALID,19.3984,VALID,139,VALID,0.259663,
2003-04-10, 01:23:00,VALID,916.834,VALID,0,VALID,99.9659,VALID,0.0169808,VALID,19.3989,VALID,141,VALID,0.541266,
2003-04-10, 01:24:00,VALID,916.814,VALID,0,VALID,99.9735,VALID,0.0169808,VALID,19.3921,VALID,145,VALID,0.962305,
2003-04-10, 01:25:00,VALID,916.812,VALID,0,VALID,99.9786,VALID,0,VALID,19.3924,VALID,127,VALID,0.498437,
2003-04-10, 01:26:00,VALID,916.797,VALID,0,VALID,99.9685,VALID,0.0169808,VALID,19.373,VALID,144,VALID,0.823317,
2003-04-10, 01:27:00,VALID,916.795,VALID,0,VALID,99.9735,VALID,0.0169808,VALID,19.3857,VALID,150,VALID,0.932977,
2003-04-10, 01:28:00,VALID,916.773,VALID,0,VALID,99.9774,VALID,0,VALID,19.3889,VALID,152,VALID,1.19436,
2003-04-10, 01:29:00,VALID,916.749,VALID,0,VALID,99.9837,VALID,-0.0169808,VALID,19.3857,VALID,156,VALID,0.754207,
2003-04-10, 01:30:00,VALID,916.727,VALID,0,VALID,99.986,VALID,0.0169808,VALID,19.409,VALID,151,VALID,0.568576,
2003-04-10, 01:31:00,VALID,916.714,VALID,0,VALID,99.9748,VALID,0,VALID,19.4085,VALID,117,VALID,0.960565,
2003-04-10, 01:32:00,VALID,916.702,VALID,0,VALID,99.9723,VALID,0.0169808,VALID,19.4053,VALID,152,VALID,1.0038,
2003-04-10, 01:33:00,VALID,916.689,VALID,0,VALID,99.971,VALID,0,VALID,19.4083,VALID,148,VALID,1.0029,
2003-04-10, 01:34:00,VALID,916.687,VALID,0,VALID,99.9672,VALID,-0.0169808,VALID,19.4053,VALID,165,VALID,0.922697,
2003-04-10, 01:35:00,VALID,916.676,VALID,0,VALID,99.9685,VALID,-0.0169808,VALID,19.3989,VALID,147,VALID,0.755068,
2003-04-10, 01:36:00,VALID,916.686,VALID,0,VALID,99.9761,VALID,-0.0169808,VALID,19.409,VALID,145,VALID,0.960938,
2003-04-10, 01:37:00,VALID,916.68,VALID,0,VALID,99.9786,VALID,0,VALID,19.3989,VALID,150,VALID,1.41591,
2003-04-10, 01:38:00,VALID,916.672,VALID,0,VALID,99.9748,VALID,-0.0169808,VALID,19.4115,VALID,150,VALID,1.06751,
2003-04-10, 01:39:00,VALID,916.687,VALID,0,VALID,99.9647,VALID,0.0169808,VALID,19.4083,VALID,142,VALID,1.04392,
2003-04-10, 01:40:00,VALID,916.678,VALID,0,VALID,99.9672,VALID,0,VALID,19.4182,VALID,135,VALID,0.53145,
2003-04-10, 01:41:00,VALID,916.694,VALID,0,VALID,99.9608,VALID,0,VALID,19.4217,VALID,135,VALID,1.0152,
2003-04-10, 01:42:00,VALID,916.691,VALID,0,VALID,99.9647,VALID,-0.0169808,VALID,19.4284,VALID,132,VALID,1.38164,
2003-04-10, 01:43:00,VALID,916.697,VALID,0,VALID,99.9608,VALID,0.0339617,VALID,19.4245,VALID,156,VALID,1.29023,
2003-04-10, 01:44:00,VALID,916.692,VALID,0,VALID,99.9647,VALID,0.0169808,VALID,19.4307,VALID,141,VALID,0.94848,
2003-04-10, 01:45:00,VALID,916.704,VALID,0,VALID,99.971,VALID,0.0169808,VALID,19.4439,VALID,129,VALID,1.12541,
2003-04-10, 01:46:00,VALID,916.72,VALID,0,VALID,99.9647,VALID,-0.0339617,VALID,19.4538,VALID,140,VALID,1.16907,
2003-04-10, 01:47:00,VALID,916.723,VALID,0,VALID,99.9647,VALID,0,VALID,19.4605,VALID,138,VALID,1.1901,
2003-04-10, 01:48:00,VALID,916.721,VALID,0,VALID,99.9583,VALID,-0.0169808,VALID,19.467,VALID,109,VALID,1.12179,
2003-04-10, 01:49:00,VALID,916.736,VALID,0,VALID,99.9519,VALID,0,VALID,19.4732,VALID,95,VALID,0.842348,
2003-04-10, 01:50:00,VALID,916.746,VALID,0,VALID,99.957,VALID,-0.0169808,VALID,19.4799,VALID,68,VALID,1.08357,
2003-04-10, 01:51:00,VALID,916.765,VALID,0,VALID,99.9634,VALID,-0.0169808,VALID,19.4831,VALID,95,VALID,1.24659,
2003-04-10, 01:52:00,VALID,916.776,VALID,0,VALID,99.9507,VALID,0,VALID,19.4734,VALID,103,VALID,1.92758,
2003-04-10, 01:53:00,VALID,916.798,VALID,0,VALID,99.957,VALID,-0.0169808,VALID,19.4672,VALID,119,VALID,1.71777,
2003-04-10, 01:54:00,VALID,916.804,VALID,0,VALID,99.9557,VALID,-0.135847,VALID,19.4749,VALID,112,VALID,1.89474,
2003-04-10, 01:55:00,VALID,916.809,VALID,0,VALID,99.9545,VALID,-0.118866,VALID,19.4814,VALID,95,VALID,1.36966,
2003-04-10, 01:56:00,VALID,916.836,VALID,0,VALID,99.9494,VALID,-0.101885,VALID,19.4913,VALID,114,VALID,1.47677,
2003-04-10, 01:57:00,VALID,916.842,VALID,0,VALID,99.9443,VALID,-0.0849042,VALID,19.5008,VALID,127,VALID,1.14944,
2003-04-10, 01:58:00,VALID,916.839,VALID,0,VALID,99.9392,VALID,-0.118866,VALID,19.5077,VALID,110,VALID,1.28025,
2003-04-10, 01:59:00,VALID,916.859,VALID,0,VALID,99.9468,VALID,-0.101885,VALID,19.4873,VALID,104,VALID,0.769631,
2003-04-10, 02:00:00,VALID,916.863,VALID,0,VALID,99.9367,VALID,-0.101885,VALID,19.5005,VALID,133,VALID,1.05489,
2003-04-10, 02:01:00,VALID,916.86,VALID,0,VALID,99.9367,VALID,-0.0679233,VALID,19.507,VALID,114,VALID,0.893029,
2003-04-10, 02:02:00,VALID,916.852,VALID,0,VALID,99.9303,VALID,-0.0849042,VALID,19.5172,VALID,135,VALID,1.56288,
2003-04-10, 02:03:00,VALID,916.84,VALID,0,VALID,99.9303,VALID,-0.0849042,VALID,19.5164,VALID,121,VALID,0.972155,
2003-04-10, 02:04:00,VALID,916.849,VALID,0,VALID,99.9112,VALID,-0.0849042,VALID,19.5396,VALID,114,VALID,1.67491,
2003-04-10, 02:05:00,VALID,916.847,VALID,0,VALID,99.9023,VALID,-0.135847,VALID,19.5555,VALID,136,VALID,1.16845,
2003-04-10, 02:06:00,VALID,916.852,VALID,0,VALID,99.9023,VALID,-0.0849042,VALID,19.5714,VALID,134,VALID,1.85742,
2003-04-10, 02:07:00,VALID,916.836,VALID,0,VALID,99.8807,VALID,-0.118866,VALID,19.6007,VALID,130,VALID,1.42188,
2003-04-10, 02:08:00,VALID,916.819,VALID,0,VALID,99.8616,VALID,-0.0509425,VALID,19.637,VALID,132,VALID,1.33244,
2003-04-10, 02:09:00,VALID,916.802,VALID,0,VALID,99.8464,VALID,-0.118866,VALID,19.6395,VALID,136,VALID,1.6609,
2003-04-10, 02:10:00,VALID,916.79,VALID,0,VALID,99.821,VALID,-0.101885,VALID,19.6525,VALID,105,VALID,1.35855,
2003-04-10, 02:11:00,VALID,916.767,VALID,0,VALID,99.7917,VALID,-0.0849042,VALID,19.6756,VALID,119,VALID,1.31044,
2003-04-10, 02:12:00,VALID,916.748,VALID,0,VALID,99.7726,VALID,-0.101885,VALID,19.6651,VALID,125,VALID,1.12253,
2003-04-10, 02:13:00,VALID,916.724,VALID,0,VALID,99.7548,VALID,-0.101885,VALID,19.6748,VALID,125,VALID,1.4413,
2003-04-10, 02:14:00,VALID,916.682,VALID,0,VALID,99.7218,VALID,-0.101885,VALID,19.6781,VALID,124,VALID,1.03536,
2003-04-10, 02:15:00,VALID,916.666,VALID,0,VALID,99.7103,VALID,-0.101885,VALID,19.6917,VALID,125,VALID,1.36423,
2003-04-10, 02:16:00,VALID,916.64,VALID,0,VALID,99.6849,VALID,-0.0849042,VALID,19.6815,VALID,118,VALID,1.68574,
2003-04-10, 02:17:00,VALID,916.616,VALID,0,VALID,99.662,VALID,-0.101885,VALID,19.7044,VALID,101,VALID,1.31971,
2003-04-10, 02:18:00,VALID,916.618,VALID,0,VALID,99.6328,VALID,-0.101885,VALID,19.7174,VALID,111,VALID,1.67905,
2003-04-10, 02:19:00,VALID,916.594,VALID,0,VALID,99.6048,VALID,-0.101885,VALID,19.7268,VALID,109,VALID,1.35537,
2003-04-10, 02:20:00,VALID,916.586,VALID,0,VALID,99.5717,VALID,-0.101885,VALID,19.7529,VALID,109,VALID,1.75586,
2003-04-10, 02:21:00,VALID,916.58,VALID,0,VALID,99.5336,VALID,-0.0509425,VALID,19.7489,VALID,81,VALID,1.60657,
2003-04-10, 02:22:00,VALID,916.56,VALID,0,VALID,99.5145,VALID,-0.0509425,VALID,19.7616,VALID,79,VALID,1.68429,
2003-04-10, 02:23:00,VALID,916.549,VALID,0,VALID,99.4916,VALID,-0.0509425,VALID,19.7678,VALID,103,VALID,1.73157,
2003-04-10, 02:24:00,VALID,916.538,VALID,0,VALID,99.4344,VALID,-0.0169808,VALID,19.78,VALID,101,VALID,1.84214,
2003-04-10, 02:25:00,VALID,916.522,VALID,0,VALID,99.3721,VALID,0.0169808,VALID,19.8188,VALID,90,VALID,1.66146,
2003-04-10, 02:26:00,VALID,916.504,VALID,0,VALID,99.278,VALID,0.0169808,VALID,19.8287,VALID,85,VALID,1.21423,
2003-04-10, 02:27:00,VALID,916.485,VALID,0,VALID,99.2513,VALID,0.0679233,VALID,19.8248,VALID,82,VALID,1.13105,
2003-04-10, 02:28:00,VALID,916.477,VALID,0,VALID,99.236,VALID,0,VALID,19.832,VALID,119,VALID,0.849712,
2003-04-10, 02:29:00,VALID,916.466,VALID,0,VALID,99.222,VALID,0,VALID,19.8285,VALID,103,VALID,1.27195,
2003-04-10, 02:30:00,VALID,916.434,VALID,0,VALID,99.1813,VALID,-0.0169808,VALID,19.829,VALID,102,VALID,1.2021,
2003-04-10, 02:31:00,VALID,916.424,VALID,0,VALID,99.1585,VALID,-0.0169808,VALID,19.8452,VALID,122,VALID,1.32192,
2003-04-10, 02:32:00,VALID,916.385,VALID,0,VALID,99.1381,VALID,-0.0169808,VALID,19.8449,VALID,121,VALID,1.07109,
2003-04-10, 02:33:00,VALID,916.395,VALID,0,VALID,99.119,VALID,0,VALID,19.8447,VALID,123,VALID,1.03535,
2003-04-10, 02:34:00,VALID,916.375,VALID,0,VALID,99.0834,VALID,0,VALID,19.8342,VALID,105,VALID,1.23217,
2003-04-10, 02:35:00,VALID,916.38,VALID,0,VALID,99.03,VALID,0,VALID,19.8345,VALID,110,VALID,1.35938,
2003-04-10, 02:36:00,VALID,916.355,VALID,0,VALID,99.016,VALID,0,VALID,19.8511,VALID,108,VALID,0.826982,
2003-04-10, 02:37:00,VALID,916.344,VALID,0,VALID,99.0173,VALID,0,VALID,19.8509,VALID,105,VALID,0.630409,
2003-04-10, 02:38:00,VALID,916.332,VALID,0,VALID,99.0059,VALID,0,VALID,19.8544,VALID,114,VALID,0.819444,
2003-04-10, 02:39:00,VALID,916.309,VALID,0,VALID,98.9779,VALID,-0.0169808,VALID,19.8476,VALID,121,VALID,1.14732,
2003-04-10, 02:40:00,VALID,916.29,VALID,0,VALID,98.9499,VALID,0,VALID,19.8479,VALID,135,VALID,1.11106,
2003-04-10, 02:41:00,VALID,916.286,VALID,0,VALID,98.9423,VALID,-0.0339617,VALID,19.8447,VALID,126,VALID,0.8625,
2003-04-10, 02:42:00,VALID,916.272,VALID,0,VALID,98.9346,VALID,-0.0339617,VALID,19.8447,VALID,135,VALID,1.2243,
2003-04-10, 02:43:00,VALID,916.27,VALID,0,VALID,98.9537,VALID,-0.0339617,VALID,19.8387,VALID,135,VALID,0.922297,
2003-04-10, 02:44:00,VALID,916.255,VALID,0,VALID,98.9715,VALID,0,VALID,19.8126,VALID,122,VALID,0.672492,
2003-04-10, 02:45:00,VALID,916.252,VALID,0,VALID,99.0148,VALID,-0.0169808,VALID,19.8059,VALID,134,VALID,1.01151,
2003-04-10, 02:46:00,VALID,916.24,VALID,0,VALID,99.0605,VALID,0,VALID,19.7907,VALID,125,VALID,1.30329,
2003-04-10, 02:47:00,VALID,916.224,VALID,0,VALID,99.0923,VALID,-0.0169808,VALID,19.7542,VALID,110,VALID,0.993877,
2003-04-10, 02:48:00,VALID,916.186,VALID,0,VALID,99.1432,VALID,0,VALID,19.7574,VALID,125,VALID,0.795072,
2003-04-10, 02:49:00,VALID,916.162,VALID,0,VALID,99.1419,VALID,0,VALID,19.7576,VALID,121,VALID,1.19869,
2003-04-10, 02:50:00,VALID,916.124,VALID,0,VALID,99.1406,VALID,0,VALID,19.7415,VALID,136,VALID,1.39531,
2003-04-10, 02:51:00,VALID,916.088,VALID,0,VALID,99.1318,VALID,0,VALID,19.7248,VALID,142,VALID,1.14121,
2003-04-10, 02:52:00,VALID,916.07,VALID,0,VALID,99.1368,VALID,0,VALID,19.7283,VALID,143,VALID,1.29645,
2003-04-10, 02:53:00,VALID,916.048,VALID,0,VALID,99.1394,VALID,0,VALID,19.7057,VALID,144,VALID,1.22656,
2003-04-10, 02:54:00,VALID,916.032,VALID,0,VALID,99.1661,VALID,0,VALID,19.696,VALID,139,VALID,1.07011,
2003-04-10, 02:55:00,VALID,916.02,VALID,0,VALID,99.2131,VALID,0,VALID,19.6801,VALID,142,VALID,0.97476,
2003-04-10, 02:56:00,VALID,916.009,VALID,0,VALID,99.2449,VALID,0,VALID,19.6544,VALID,148,VALID,1.68269,
2003-04-10, 02:57:00,VALID,916.001,VALID,0,VALID,99.2932,VALID,0,VALID,19.6216,VALID,144,VALID,1.2496,
2003-04-10, 02:58:00,VALID,915.988,VALID,0,VALID,99.3568,VALID,-0.0169808,VALID,19.6191,VALID,129,VALID,1.10511,
2003-04-10, 02:59:00,VALID,915.973,VALID,0,VALID,99.395,VALID,-0.0679233,VALID,19.6124,VALID,133,VALID,0.830729,
2003-04-10, 03:00:00,VALID,915.953,VALID,0,VALID,99.4217,VALID,-0.0169808,VALID,19.6092,VALID,112,VALID,0.853674,
2003-04-10, 03:01:00,VALID,915.947,VALID,0,VALID,99.4344,VALID,-0.0339617,VALID,19.5992,VALID,112,VALID,0.578516,
2003-04-10, 03:02:00,VALID,915.955,VALID,0,VALID,99.4446,VALID,-0.0339617,VALID,19.6062,VALID,123,VALID,0.861431,
2003-04-10, 03:03:00,VALID,915.955,VALID,0,VALID,99.4611,VALID,-0.0169808,VALID,19.6122,VALID,110,VALID,0.517149,
2003-04-10, 03:04:00,VALID,915.967,VALID,0,VALID,99.4764,VALID,0,VALID,19.6055,VALID,106,VALID,0.622738,
2003-04-10, 03:05:00,VALID,915.958,VALID,0,VALID,99.4611,VALID,-0.0339617,VALID,19.6087,VALID,99,VALID,0.815104,
2003-04-10, 03:06:00,VALID,915.984,VALID,0,VALID,99.4662,VALID,-0.0339617,VALID,19.5923,VALID,129,VALID,0.546074,
2003-04-10, 03:07:00,VALID,915.969,VALID,0,VALID,99.4789,VALID,-0.0509425,VALID,19.5995,VALID,136,VALID,0.796274,
2003-04-10, 03:08:00,VALID,915.966,VALID,0,VALID,99.4776,VALID,-0.0339617,VALID,19.5992,VALID,111,VALID,0.871595,
2003-04-10, 03:09:00,VALID,915.956,VALID,0,VALID,99.4598,VALID,-0.0509425,VALID,19.6161,VALID,129,VALID,0.719752,
2003-04-10, 03:10:00,VALID,915.936,VALID,0,VALID,99.4535,VALID,-0.0679233,VALID,19.6027,VALID,142,VALID,0.77096,
2003-04-10, 03:11:00,VALID,915.915,VALID,0,VALID,99.4611,VALID,-0.0339617,VALID,19.5997,VALID,160,VALID,1.10477,
2003-04-10, 03:12:00,VALID,915.888,VALID,0,VALID,99.4585,VALID,-0.0339617,VALID,19.606,VALID,154,VALID,1.10308,
2003-04-10, 03:13:00,VALID,915.871,VALID,0,VALID,99.4522,VALID,-0.0849042,VALID,19.5965,VALID,158,VALID,0.886814,
2003-04-10, 03:14:00,VALID,915.87,VALID,0,VALID,99.4598,VALID,-0.0169808,VALID,19.5828,VALID,146,VALID,0.587023,
2003-04-10, 03:15:00,VALID,915.864,VALID,0,VALID,99.4675,VALID,-0.0509425,VALID,19.5734,VALID,102,VALID,0.493056,
2003-04-10, 03:16:00,VALID,915.871,VALID,0,VALID,99.4713,VALID,0,VALID,19.5677,VALID,76,VALID,0.379317,
2003-04-10, 03:17:00,VALID,915.89,VALID,0,VALID,99.4853,VALID,-0.0169808,VALID,19.5508,VALID,105,VALID,0.238387,
2003-04-10, 03:18:00,VALID,915.898,VALID,0,VALID,99.4967,VALID,0,VALID,19.5448,VALID,156,VALID,0.491776,
2003-04-10, 03:19:00,VALID,915.892,VALID,0,VALID,99.5094,VALID,-0.0169808,VALID,19.5316,VALID,171,VALID,0.650288,
2003-04-10, 03:20:00,VALID,915.884,VALID,0,VALID,99.531,VALID,-0.0509425,VALID,19.515,VALID,173,VALID,0.377673,
2003-04-10, 03:21:00,VALID,915.854,VALID,0,VALID,99.5476,VALID,0,VALID,19.5157,VALID,154,VALID,0.419341,
2003-04-10, 03:22:00,VALID,915.829,VALID,0,VALID,99.5641,VALID,-0.0169808,VALID,19.5122,VALID,159,VALID,0.753495,
2003-04-10, 03:23:00,VALID,915.837,VALID,0,VALID,99.6124,VALID,-0.0169808,VALID,19.5214,VALID,165,VALID,0.750422,
2003-04-10, 03:24:00,VALID,915.82,VALID,0,VALID,99.6328,VALID,-0.0339617,VALID,19.5448,VALID,147,VALID,0.487695,
2003-04-10, 03:25:00,VALID,915.823,VALID,0,VALID,99.6544,VALID,-0.0339617,VALID,19.5674,VALID,104,VALID,0.909856,
2003-04-10, 03:26:00,VALID,915.815,VALID,0,VALID,99.6747,VALID,-0.0169808,VALID,19.5833,VALID,119,VALID,0.874367,
2003-04-10, 03:27:00,VALID,915.806,VALID,0,VALID,99.6633,VALID,-0.0169808,VALID,19.6097,VALID,119,VALID,0.840345,
2003-04-10, 03:28:00,VALID,915.794,VALID,0,VALID,99.6468,VALID,-0.0509425,VALID,19.6154,VALID,120,VALID,0.554688,
2003-04-10, 03:29:00,VALID,915.772,VALID,0,VALID,99.6378,VALID,0,VALID,19.6219,VALID,104,VALID,0.384615,
2003-04-10, 03:30:00,VALID,915.758,VALID,0,VALID,99.6289,VALID,0,VALID,19.6447,VALID,70,VALID,0.552284,
2003-04-10, 03:31:00,VALID,915.751,VALID,0,VALID,99.6239,VALID,0,VALID,19.6445,VALID,80,VALID,0.297476,
2003-04-10, 03:32:00,VALID,915.745,VALID,0,VALID,99.6061,VALID,0,VALID,19.6542,VALID,68,VALID,0.982537,
2003-04-10, 03:33:01,VALID,915.723,VALID,0,VALID,99.6022,VALID,0,VALID,19.6574,VALID,100,VALID,0.608974,
2003-04-10, 03:34:00,VALID,915.699,VALID,0,VALID,99.587,VALID,0,VALID,19.6741,VALID,138,VALID,0.937706,
2003-04-10, 03:35:00,VALID,915.688,VALID,0,VALID,99.5679,VALID,0.0169808,VALID,19.6768,VALID,130,VALID,0.666797,